Hourly Data Report for June 23, 2021

POND INLET A
NUNAVUT
Current Station Operator: NAVCAN

72°41'22.000" N
77°58'08.000" W
61.60 m
2403206
71095
YIO

Download Data

Hourly Data (June 2021)
Hourly Data Report for June 23, 2021
TIME
LST
Temp Definition
°C
Dew Point Definition
°C
Rel Hum Definition
%
Precip. Amount Definition
mm

Wind Dir Definition
10's deg

Wind Spd Definition
km/h
Visibility Definition
km
Stn Press Definition
kPa
Hmdx Definition


Wind Chill Definition


Weather Definition


00:00 4.5 -1.4 65 0.0 5 35 16.1 98.58     LegendNANA
01:00 2.6 -1.2 76 0.0 5 39 16.1 98.50     LegendNANA
02:00 2.9 -1.4 73 0.0 5 37 16.1 98.51     LegendNANA
03:00 3.1 -1.1 74 0.0 5 37 16.1 98.47     LegendNANA
04:00 2.6 -1.1 77 0.0 5 39 16.1 98.40     LegendNANA
05:00 4.5 -1.7 64 0.0 4 26 16.1 98.36     LegendNANA
06:00 6.5 -2.5 53 0.0 1 21 16.1 98.28     LegendNANA
07:00 11.2 -2.9 37 0.0 7 15 12.9 98.21     LegendNANA
08:00 13.6 -5.6 26 0.0 11 39 12.9 98.04     LegendNANA
09:00 14.2 -5.5 25 0.0 11 24 16.1 98.05     LegendNANA
10:00 12.2 -1.3 39 0.0 LegendMM 15 16.1 98.11     LegendNANA
11:00 8.6 -0.9 51 0.0 LegendMM 21 16.1 98.09     LegendNANA
12:00 8.8 -0.7 51 0.0 3 21 16.1 98.11     LegendNANA
13:00 8.7 2.7 66 0.0 6 24 16.1 98.14     LegendNANA
14:00 5.1 0.7 73 0.0 5 37 16.1 98.22     LegendNANA
15:00 4.0 0.9 80 0.0 6 39 16.1 98.24     LegendNANA
16:00 4.3 1.1 79 0.0 5 46 16.1 98.20     LegendNANA
17:00 4.9 1.0 76 0.0 6 28 16.1 98.19     LegendNANA
18:00 5.6 1.6 75 0.0 6 37 16.1 98.22     LegendNANA
19:00 4.9 0.9 75 0.0 7 28 16.1 98.25     LegendNANA
20:00 7.1 2.4 72 0.0 6 41 16.1 98.14     LegendNANA
21:00 7.2 2.5 72 0.0 7 45 16.1 98.10     LegendNANA
22:00 6.6 2.9 77 0.0 6 37 16.1 98.14     LegendNANA
23:00 7.1 2.0 70 0.0 7 35 16.1 98.17     LegendNANA

Notes on Data Quality.

Legend

  • E = Estimated
  • M = Missing
  • NA = Not Available*
  • [empty] = Indicates an unobserved value
Date modified: